User: anonymous   Login
Location: ???? ?????????
(31.1304°N, 31.7111°E)
Time: 14:59:25
(UTC+00:00)
Language:

JUGNU - Orbit

View from above orbital plane
View from above orbital plane
View from above satellite
View from above satellite

Ground track
Ground track

The orbit data is extracted from the following two-line orbital elements,

1 37839U 11058B   21109.99272160  .00000342  00000-0  40011-4 0  9993
2 37839  19.9604 223.7465 0018814 167.4956 351.3891 14.12710952492298
Epoch (UTC): 19 April 2021 23:49:31
Eccentricity: 0.0018814
inclination: 19.9604°
perigee height: 836 km
apogee height: 864 km
right ascension of ascending node: 223.7465°
argument of perigee: 167.4956°
revolutions per day: 14.12710952
mean anomaly at epoch: 351.3891°
orbit number at epoch: 49229

The dashed part of the orbit path shows where the satellite is in the earth's shadow,  

DLR